Flag for U.S.A. Weather past 2 weeks in Bowling Green, Kentucky, U.S.A.

Now
74 °F

Clear.


Feels Like: 71 °F
Forecast: 72 / 86 °F
Wind: 3 mph from Southwest

Location: Glasgow Municipal Airport

Current Time: Jul 7, 2015 at 2:00:39 AM

Latest Report: Jul 7, 2015 at 1:15 AM


Visibility: 10 mi

Pressure: 30.05 "Hg

Humidity: 92%

Dew point: 71 °F

Location of Bowling GreenLocation

Historic Weather in Bowling Green — Graph

°F

Bowling Green temperature yesterday

Maximum temperature yesterday: 85 °F (at 3:55 PM)
Minimum temperature yesterday: 65 °F (at 5:55 AM)
Average temperature yesterday: 75 °F

Past Weeks' High & Low Weather Summary

 TemperatureHumidityPressure
High90 °F (Jun 25, 3:55 PM)100% (Jun 22, 1:35 AM)30.17 "Hg (Jun 22, 1:35 AM)
Low55 °F (Jun 28, 4:15 AM)35% (Jun 28, 3:15 PM)29.81 "Hg (Jun 27, 3:35 AM)
Average75 °F81%29.99 "Hg
* Reported Jun 22 1:15 AM — Jul 7 1:15 AM, Bowling Green, Weather by CustomWeather, © 2015

Note: Actual official high and low records may vary slightly from our data, if they occured in-between our weather recording intervals... More about our weather records

Advertising

Bowling Green weather history for previous 24 hours

 ConditionsComfort  
Time TempWeatherWind HumidityBarometerVisibility
1:15 AM
Tue, Jul 7
74 °FClear.3 mph92%30.05 "Hg10 mi
12:55 AM74 °FClear.3 mph88%30.05 "Hg10 mi
12:35 AM74 °FClear.3 mph86%30.05 "Hg10 mi
12:15 AM74 °FClear.3 mph85%30.05 "Hg10 mi
11:55 PM
Mon, Jul 6
74 °FClear.3 mph86%30.05 "Hg10 mi
11:35 PM74 °FPassing clouds.No wind83%30.06 "Hg10 mi
11:15 PM74 °FClear.3 mph83%30.06 "Hg10 mi
10:55 PM74 °FClear.No wind83%30.06 "Hg10 mi
10:15 PM74 °FClear.No wind83%30.07 "Hg10 mi
9:55 PM74 °FClear.No wind83%30.07 "Hg10 mi
9:15 PM76 °FClear.No wind78%30.04 "Hg10 mi
8:55 PM76 °FClear.No wind78%30.04 "Hg10 mi
8:35 PM77 °FClear.No wind76%30.03 "Hg10 mi
8:15 PM78 °FClear.No wind74%30.03 "Hg10 mi
7:55 PM78 °FSunny.3 mph73%30.02 "Hg10 mi
7:35 PM79 °FSunny.3 mph70%30.02 "Hg10 mi
7:15 PM80 °FSunny.5 mph68%30.02 "Hg10 mi
6:55 PM81 °FSunny.6 mph67%30.03 "Hg10 mi
6:35 PM82 °FSunny.6 mph66%30.04 "Hg10 mi
6:15 PM82 °FSunny.10 mph64%30.04 "Hg10 mi
5:55 PM83 °FScattered clouds.7 mph62%30.04 "Hg10 mi
5:35 PM84 °FScattered clouds.9 mph62%30.05 "Hg10 mi
5:15 PM84 °FScattered clouds.7 mph60%30.05 "Hg10 mi
4:55 PM84 °FSunny.7 mph60%30.06 "Hg10 mi
4:15 PM84 °FSunny.7 mph58%30.07 "Hg10 mi
3:55 PM85 °FSunny.7 mph58%30.07 "Hg10 mi
3:35 PM84 °FScattered clouds.9 mph57%30.08 "Hg10 mi
3:15 PM84 °FSunny.9 mph58%30.08 "Hg10 mi
2:55 PM84 °FScattered clouds.12 mph59%30.09 "Hg10 mi
2:35 PM83 °FScattered clouds.9 mph61%30.09 "Hg10 mi
2:15 PM83 °FScattered clouds.7 mph62%30.10 "Hg10 mi
1:55 PM83 °FScattered clouds.9 mph63%30.11 "Hg10 mi
1:15 PM82 °FBroken clouds.9 mph66%30.11 "Hg10 mi
12:55 PM83 °FBroken clouds.8 mph64%30.12 "Hg10 mi
12:35 PM82 °FScattered clouds.7 mph64%30.12 "Hg10 mi
12:15 PM82 °FBroken clouds.6 mph69%30.13 "Hg10 mi
11:55 AM80 °FScattered clouds.5 mph72%30.13 "Hg10 mi
11:15 AM77 °FPartly sunny.3 mph79%30.14 "Hg10 mi
10:55 AM76 °FMostly cloudy.6 mph83%30.15 "Hg10 mi
10:35 AM77 °FOvercast.5 mph85%30.14 "Hg10 mi
10:15 AM75 °FLow clouds.7 mph88%30.13 "Hg7 mi
9:55 AM74 °FLow clouds.5 mph94%30.13 "Hg7 mi
9:35 AM73 °FFog.5 mph97%30.12 "Hg5 mi
9:15 AM72 °FFog.7 mph100%30.13 "Hg4 mi
9:00 AM72 °FFog.8 mph100%30.13 "Hg4 mi
8:35 AM73 °FFog.6 mph100%30.13 "Hg4 mi
8:15 AM72 °FFog.5 mph100%30.13 "Hg4 mi
7:15 AM69 °FFog.No wind100%30.13 "Hg2 mi
6:55 AM67 °FFog.No wind100%30.12 "Hg1 mi
6:35 AM65 °FFog.No wind100%30.13 "Hg3 mi
6:15 AM65 °FFog.No wind100%30.13 "Hg2 mi
5:55 AM65 °FFog.No wind100%30.12 "Hg2 mi
5:35 AM65 °FFog.No wind100%30.11 "Hg2 mi
5:15 AM65 °FFog.No wind100%30.10 "Hg2 mi
4:55 AM65 °FFog.No wind100%30.10 "Hg3 mi
4:35 AM66 °FFog.No wind100%30.09 "Hg3 mi
4:15 AM66 °FFog.No wind100%30.09 "Hg2 mi
3:55 AM66 °FFog.No wind100%30.08 "Hg2 mi
3:35 AM66 °FFog.No wind100%30.07 "Hg2 mi
3:15 AM67 °FFog.No wind100%30.06 "Hg3 mi
2:55 AM66 °FFog.No wind100%30.05 "Hg2 mi
2:35 AM67 °FFog.No wind100%30.05 "Hg2 mi
2:15 AM67 °FFog.No wind100%30.06 "Hg3 mi
Weather by CustomWeather, © 2015

See weather overviewHow to use our weather pages